SL-12 R/B(2), 18387

Orbit data source: Space-Track

SL-12 R/B(2), 18387 is space debris in GEO originally from a launch on Thu, 01 Oct 1987 UTC launched from the Tyuratam Missile And Space Complex (TTMTR). Debris objects in space refer to the collection of defunct objects orbiting the Earth. Examples of debris include non-operational satellites, rocket bodies, and fragments generated from explosions, collisions, or faulty payload assembly.

Loading next visibility...
SL-12 R/B(2) details
Identifier
18387, 1987-084D
Orbit
GEO
Last TLE update1 day ago
Origin
Flag of CISRVSN (CIS)
ManufacturerNPO Energiya
MissionSpacecraft
Bus & MotorBLOK DM, Unknown motor
Mass2,440 kg wet, 2,440 kg dry
Launch date (UTC)
1987-10-01 (37 years ago)
Launch vehicleUnknown
Launch site
Tyuratam Missile And Space Complex (TTMTR)
Object type
Payload
Rocket body
Debris
Shape & HBRCyl, 6.27 m
Radar Cross Section23.597 m², Large (>1 m²)

Expand to show TLE details & history

TLE from 1 day ago
0 SL-12 R/B(2)
1 18387U 87084D   24347.63408453  .00000104  00000-0  00000-0 0  9992
2 18387  11.7198 330.2992 0030327 235.1729 305.7824  1.00049211143250
Epoch: 2024-12-12T15:13Z
Definitive object data (Epoch: 2024-12-12T15:13:04.903Z)
Latitude-0.14234°
Longitude-159.1329°
Altitude35,774.672 km
Speed3.078 km/s
True Right ascension10h 03m 47s
True Declination0° 08' 32"
Sunlit
Object was in daylight at TLE epoch
Visualization TLE readout
Latitude-11.5984°
Longitude-60.61636°
Altitude35,757.809 km
Speed3.079 km/s
Apparent Right ascension16h 14m 12s
Apparent Declination-17° 58' 43"
Sunlit
Object is in daylight
Visualization observer readout
Local Sidereal Time20:15:06
Azimuth236.82° WSW
Elevation9.453°
Doppler factor1
Orbital elements
Apogee altitude35,978.176 km
Perigee altitude35,722.045 km
Semi-major axis42,228.248 km
Eccentricity0.0030327
Inclination11.7198°
RAAN330.2992°
Arg. of periapsis235.1729°
True anomaly305.49985°
Mean anomaly305.7824°
Eccentric anomaly305.64119°
Mean motion0.25011 °/min
BSTARUnknown
Orbital period1439.34 mins
Loading historical data...
18387 neighbors
Authenticating...
Loading maneuver chart data...
Loading historical data...
Loading historical data...
Loading historical data...
Loading historical data...
Loading historical data...
Loading historical data...
Loading historical data...

SL-12 R/B(2) Visibility forecast

Observer location: undefined°, undefined

Span
Click to sort rows by Start time (UTC) header in descending order
Start Az.
Max El. time (UTC)
Max El. Az.
Max El.
End time (UTC)
End Az.
1198 mins2024-12-13 22:34:19.413Z237.097° WSW2024-12-14 09:29:19.413Z255.863° W23.794°2024-12-14 18:32:19.413Z239.883° WSW
|